Home   Weather   Kailua-Kona   Past weeks

Flag for USA Past Weather in Kailua-Kona, Hawaii, USA — Yesterday and Last 2 Weeks

78 °F


Feels Like: 80 °F
Forecast: 70 / 81 °F
Wind: 5 mph from Southeast

Location: Keahole Airport

Current Time: Oct 24, 2016 at 12:49:10 AM

Latest Report: Oct 23, 2016 at 11:53 PM

Visibility: 10 mi

Pressure: 29.98 "Hg

Humidity: 60%

Dew Point: 63 °F

Location of Kailua-KonaLocation

Past Weather in Kailua-Kona — Graph


Kailua-Kona Temperature Yesterday

Maximum temperature yesterday: 87 °F (at 12:53 PM)
Minimum temperature yesterday: 76 °F (at 4:53 AM)
Average temperature yesterday: 81 °F

High & Low Weather Summary for the Past Weeks

High88 °F (Oct 10, 10:53 AM)85% (Oct 13, 4:53 AM)30.06 "Hg (Oct 13, 4:53 AM)
Low73 °F (Oct 17, 4:53 AM)43% (Oct 20, 4:53 PM)29.85 "Hg (Oct 9, 3:53 PM)
Average81 °F67%29.95 "Hg
* Reported Oct 8 11:53 PM — Oct 23 11:53 PM, Kailua-Kona, Weather by CustomWeather, © 2016

Note: Actual official high and low records may vary slightly from our data, if they occured in-between our weather recording intervals... More about our weather records


Kailua-Kona Weather History for the Previous 24 Hours

Scroll right to see more
Time TempWeatherWind HumidityBarometerVisibility
11:53 PM
Sun, Oct 23
78 °FClear.5 mph60%29.98 "Hg10 mi
10:53 PM79 °FClear.No wind62%29.98 "Hg10 mi
9:53 PM80 °FClear.5 mph58%29.98 "Hg10 mi
8:53 PM81 °FClear.12 mph56%29.95 "Hg10 mi
7:53 PM81 °FClear.10 mph58%29.94 "Hg10 mi
6:53 PM81 °FClear.9 mph62%29.92 "Hg10 mi
5:53 PM83 °FSunny.12 mph59%29.90 "Hg10 mi
4:53 PM86 °FSunny.10 mph49%29.88 "Hg10 mi
3:53 PM86 °FScattered clouds.12 mph57%29.88 "Hg10 mi
2:53 PM86 °FSunny.22 mph59%29.89 "Hg10 mi
1:53 PM87 °FScattered clouds.16 mph55%29.90 "Hg10 mi
12:53 PM87 °FScattered clouds.17 mph57%29.92 "Hg10 mi
11:53 AM86 °FBroken clouds.10 mph57%29.94 "Hg10 mi
10:53 AM85 °FPassing clouds.10 mph61%29.95 "Hg10 mi
9:53 AM84 °FSunny.15 mph61%29.96 "Hg10 mi
8:53 AM83 °FSunny.3 mph61%29.94 "Hg10 mi
7:53 AM80 °FSunny.9 mph58%29.93 "Hg10 mi
6:53 AM76 °FPassing clouds.5 mph64%29.92 "Hg10 mi
6:40 AM77 °FPassing clouds.20 mph65%29.91 "Hg10 mi
5:53 AM77 °FClear.9 mph66%29.89 "Hg10 mi
4:53 AM76 °FPassing clouds.14 mph69%29.90 "Hg10 mi
3:53 AM78 °FPassing clouds.No wind74%29.90 "Hg10 mi
2:53 AM77 °FMostly cloudy.5 mph77%29.90 "Hg10 mi
1:53 AM77 °FPassing clouds.No wind79%29.91 "Hg10 mi
12:53 AM78 °FClear.10 mph74%29.92 "Hg10 mi
Weather by CustomWeather, © 2016

See weather overviewHow to use our weather pages